timestamp,wind_dir_avg,wind_spd_avg,wind_spd_max_dir,wind_spd_gust,battery_voltage,lat,long
2021-06-17 00:04:01+00:00,187.0,2.95,185.0,3.14,13.37,47.59359,-54.27349
2021-06-17 00:14:01+00:00,225.0,3.46,225.0,3.83,12.81,47.59359,-54.27349
2021-06-17 00:24:01+00:00,205.0,3.34,207.0,3.62,12.81,47.59359,-54.27349
2021-06-17 00:34:01+00:00,187.0,4.57,186.0,6.14,12.81,47.59359,-54.27349
2021-06-17 00:44:01+00:00,179.0,4.64,180.0,5.1,12.81,47.59359,-54.27349
2021-06-17 00:54:01+00:00,178.0,3.46,179.0,4.58,12.81,47.59359,-54.27349
2021-06-17 01:04:01+00:00,197.0,3.44,197.0,3.76,12.81,47.59359,-54.27349
2021-06-17 01:14:01+00:00,201.0,4.29,203.0,4.63,12.65,47.59359,-54.27349
2021-06-17 01:24:01+00:00,206.0,5.51,205.0,5.99,12.65,47.59359,-54.27349
2021-06-17 01:34:01+00:00,212.0,4.97,216.0,5.67,12.65,47.59359,-54.27349
2021-06-17 01:44:01+00:00,229.0,3.88,227.0,4.44,12.65,47.59359,-54.27349
2021-06-17 01:54:01+00:00,220.0,5.03,209.0,6.69,12.65,47.59359,-54.27349
2021-06-17 02:04:01+00:00,315.0,0.01,225.0,0.0,12.65,47.59359,-54.27349
2021-06-17 02:14:00+00:00,184.0,33.74,185.0,36.98,12.57,47.59359,-54.27349
2021-06-17 02:24:00+00:00,185.0,27.64,185.0,29.23,12.57,47.59359,-54.27349
2021-06-17 02:34:00+00:00,315.0,0.01,183.0,0.0,12.57,47.59359,-54.27349
2021-06-17 02:44:00+00:00,210.0,1.84,201.0,2.3,12.57,47.59359,-54.27349
2021-06-17 02:54:00+00:00,251.0,1.47,255.0,1.85,12.57,47.59359,-54.27349
2021-06-17 03:04:00+00:00,283.0,1.59,284.0,1.78,12.57,47.59359,-54.27349
2021-06-17 03:14:01+00:00,268.0,1.49,267.0,1.79,12.57,47.59359,-54.27349
2021-06-17 03:24:01+00:00,246.0,0.47,236.0,0.65,12.57,47.59359,-54.27349
2021-06-17 03:34:01+00:00,245.0,1.23,240.0,1.43,12.57,47.59359,-54.27349
2021-06-17 03:44:01+00:00,196.0,2.48,198.0,2.7,12.57,47.59359,-54.27349
2021-06-17 03:54:01+00:00,184.0,2.85,186.0,3.08,12.57,47.59359,-54.27349
2021-06-17 04:04:01+00:00,165.0,2.73,165.0,2.9,12.57,47.59359,-54.27349
2021-06-17 04:14:01+00:00,183.0,1.78,184.0,1.94,12.57,47.59359,-54.27349
2021-06-17 04:24:01+00:00,209.0,2.32,211.0,2.44,12.57,47.59359,-54.27349
2021-06-17 04:34:01+00:00,290.0,1.51,331.0,3.42,12.57,47.59359,-54.27349
2021-06-17 04:44:01+00:00,296.0,1.82,326.0,3.09,12.57,47.59359,-54.27349
2021-06-17 04:54:01+00:00,315.0,0.01,219.0,0.0,12.57,47.59359,-54.27349
2021-06-17 05:04:01+00:00,269.0,2.41,310.0,3.43,12.57,47.59359,-54.27349
2021-06-17 05:14:01+00:00,266.0,2.98,227.0,4.53,12.57,47.59359,-54.27349
2021-06-17 05:24:01+00:00,246.0,2.57,225.0,3.43,12.57,47.59359,-54.27349
2021-06-17 05:34:01+00:00,243.0,3.05,222.0,4.36,12.57,47.59359,-54.27349
2021-06-17 05:44:01+00:00,216.0,4.44,200.0,8.22,12.57,47.59359,-54.27349
2021-06-17 05:54:01+00:00,315.0,0.01,196.0,0.0,12.57,47.59359,-54.27349
2021-06-17 06:04:01+00:00,315.0,0.01,184.0,0.0,12.57,47.59359,-54.27349
2021-06-17 06:14:01+00:00,183.0,36.11,183.0,38.4,12.49,47.59359,-54.27349
2021-06-17 06:24:01+00:00,200.0,3.64,202.0,4.36,12.49,47.59359,-54.27349
2021-06-17 06:34:01+00:00,193.0,3.75,199.0,4.24,12.49,47.59359,-54.27349
2021-06-17 06:44:01+00:00,199.0,4.09,202.0,4.34,12.49,47.59359,-54.27349
2021-06-17 06:54:01+00:00,202.0,3.97,204.0,4.36,12.49,47.59359,-54.27349
2021-06-17 07:04:01+00:00,213.0,3.62,211.0,4.3,12.49,47.59359,-54.27349
2021-06-17 07:14:00+00:00,201.0,3.64,207.0,4.06,12.41,47.59359,-54.27349
2021-06-17 07:24:00+00:00,209.0,4.47,214.0,4.95,12.41,47.59359,-54.27349
2021-06-17 07:34:00+00:00,213.0,5.37,213.0,5.81,12.41,47.59359,-54.27349
2021-06-17 07:44:00+00:00,222.0,5.66,222.0,6.36,12.41,47.59359,-54.27349
2021-06-17 07:54:00+00:00,219.0,5.08,222.0,5.79,12.41,47.59359,-54.27349
2021-06-17 08:04:00+00:00,228.0,6.85,228.0,7.84,12.41,47.59359,-54.27349
2021-06-17 08:14:01+00:00,220.0,7.52,219.0,8.32,12.41,47.59359,-54.27349
2021-06-17 08:24:01+00:00,216.0,7.43,224.0,8.0,12.41,47.59359,-54.27349
2021-06-17 08:34:01+00:00,217.0,6.86,214.0,7.52,12.41,47.59359,-54.27349
2021-06-17 08:44:01+00:00,214.0,7.62,214.0,8.36,12.41,47.59359,-54.27349
2021-06-17 08:54:01+00:00,214.0,7.05,214.0,7.78,12.41,47.59359,-54.27349
2021-06-17 09:04:01+00:00,216.0,8.65,216.0,9.4,12.41,47.59359,-54.27349
2021-06-17 09:14:01+00:00,219.0,7.27,220.0,7.93,12.57,47.59359,-54.27349
2021-06-17 09:24:01+00:00,214.0,7.75,215.0,8.69,12.57,47.59359,-54.27349
2021-06-17 09:34:01+00:00,214.0,8.08,207.0,8.97,12.57,47.59359,-54.27349
2021-06-17 09:44:01+00:00,215.0,8.1,214.0,9.33,12.57,47.59359,-54.27349
2021-06-17 09:54:01+00:00,216.0,7.85,221.0,8.57,12.57,47.59359,-54.27349
2021-06-17 10:04:01+00:00,214.0,8.41,214.0,9.22,12.57,47.59359,-54.27349
2021-06-17 10:14:00+00:00,214.0,8.09,212.0,9.28,13.29,47.59359,-54.27349
2021-06-17 10:24:00+00:00,211.0,6.8,206.0,8.17,13.29,47.59359,-54.27349
2021-06-17 10:34:00+00:00,214.0,7.28,206.0,8.57,13.29,47.59359,-54.27349
2021-06-17 10:44:00+00:00,212.0,7.56,212.0,8.79,13.29,47.59359,-54.27349
2021-06-17 10:54:00+00:00,216.0,7.92,214.0,8.98,13.29,47.59359,-54.27349
2021-06-17 11:04:00+00:00,215.0,8.01,214.0,9.09,13.29,47.59359,-54.27349
2021-06-17 11:14:01+00:00,212.0,7.63,217.0,9.3,13.76,47.59359,-54.27349
2021-06-17 11:24:01+00:00,218.0,8.02,222.0,9.25,13.76,47.59359,-54.27349
2021-06-17 11:34:01+00:00,215.0,9.32,214.0,10.33,13.76,47.59359,-54.27349
2021-06-17 11:44:01+00:00,212.0,9.17,210.0,9.89,13.76,47.59359,-54.27349
2021-06-17 11:54:01+00:00,214.0,9.1,212.0,10.1,13.76,47.59359,-54.27349
2021-06-17 12:04:01+00:00,213.0,9.34,215.0,10.44,13.76,47.59359,-54.27349
2021-06-17 12:14:01+00:00,208.0,9.31,213.0,10.41,13.84,47.59359,-54.27349
2021-06-17 12:24:01+00:00,213.0,8.87,211.0,10.06,13.84,47.59359,-54.27349
2021-06-17 12:34:01+00:00,211.0,9.8,210.0,11.09,13.84,47.59359,-54.27349
2021-06-17 12:44:01+00:00,212.0,8.5,212.0,9.44,13.84,47.59359,-54.27349
2021-06-17 12:54:01+00:00,211.0,8.48,214.0,9.97,13.84,47.59359,-54.27349
2021-06-17 13:04:01+00:00,212.0,8.59,215.0,9.7,13.84,47.59359,-54.27349
2021-06-17 13:14:01+00:00,215.0,8.22,217.0,9.44,13.76,47.59359,-54.27349
2021-06-17 13:24:01+00:00,213.0,8.57,212.0,9.35,13.76,47.59359,-54.27349
2021-06-17 13:34:01+00:00,206.0,9.52,208.0,10.54,13.76,47.59359,-54.27349
2021-06-17 13:44:01+00:00,208.0,8.65,206.0,9.69,13.76,47.59359,-54.27349
2021-06-17 13:54:01+00:00,204.0,9.42,206.0,10.45,13.76,47.59359,-54.27349
2021-06-17 14:04:01+00:00,205.0,8.89,205.0,10.06,13.76,47.59359,-54.27349
2021-06-17 14:14:01+00:00,201.0,8.4,205.0,9.5,14.16,47.59359,-54.27349
2021-06-17 14:24:01+00:00,203.0,9.39,201.0,10.52,14.16,47.59359,-54.27349
2021-06-17 14:34:01+00:00,207.0,9.85,208.0,10.86,14.16,47.59359,-54.27349
2021-06-17 14:44:01+00:00,212.0,9.75,213.0,11.25,14.16,47.59359,-54.27349
2021-06-17 14:54:01+00:00,211.0,9.56,210.0,11.05,14.16,47.59359,-54.27349
2021-06-17 15:04:01+00:00,208.0,10.84,210.0,12.1,14.16,47.59359,-54.27349
2021-06-17 15:14:01+00:00,207.0,10.99,211.0,12.09,14.24,47.59359,-54.27349
2021-06-17 15:24:01+00:00,205.0,10.72,204.0,11.57,14.24,47.59359,-54.27349
2021-06-17 15:34:01+00:00,203.0,10.5,207.0,11.66,14.24,47.59359,-54.27349
2021-06-17 15:44:01+00:00,204.0,10.77,204.0,12.05,14.24,47.59359,-54.27349
2021-06-17 15:54:01+00:00,211.0,10.55,213.0,11.75,14.24,47.59359,-54.27349
2021-06-17 16:04:01+00:00,210.0,10.14,210.0,11.37,14.24,47.59359,-54.27349
2021-06-17 16:14:01+00:00,210.0,9.37,210.0,10.38,14.24,47.59359,-54.27349
2021-06-17 16:24:01+00:00,212.0,10.01,212.0,11.34,14.24,47.59359,-54.27349
2021-06-17 16:34:01+00:00,211.0,11.12,214.0,12.69,14.24,47.59359,-54.27349
2021-06-17 16:44:01+00:00,207.0,11.18,207.0,13.09,14.24,47.59359,-54.27349
2021-06-17 16:54:01+00:00,204.0,10.77,201.0,12.64,14.24,47.59359,-54.27349
2021-06-17 17:04:01+00:00,202.0,9.81,203.0,11.46,14.24,47.59359,-54.27349
2021-06-17 17:14:01+00:00,209.0,12.18,210.0,13.36,14.24,47.59359,-54.27349
2021-06-17 17:24:01+00:00,202.0,11.27,209.0,12.16,14.24,47.59359,-54.27349
2021-06-17 17:34:01+00:00,203.0,11.63,202.0,13.08,14.24,47.59359,-54.27349
2021-06-17 17:44:01+00:00,205.0,12.13,207.0,13.21,14.24,47.59359,-54.27349
2021-06-17 17:54:01+00:00,202.0,11.73,206.0,12.73,14.24,47.59359,-54.27349
2021-06-17 18:04:01+00:00,200.0,12.27,202.0,13.52,14.24,47.59359,-54.27349
2021-06-17 18:14:01+00:00,200.0,11.9,198.0,13.21,13.92,47.59359,-54.27349
2021-06-17 18:24:01+00:00,201.0,11.83,201.0,13.11,13.92,47.59359,-54.27349
2021-06-17 18:34:01+00:00,197.0,10.96,200.0,12.25,13.92,47.59359,-54.27349
2021-06-17 18:44:01+00:00,206.0,12.11,204.0,13.55,13.92,47.59359,-54.27349
2021-06-17 18:54:01+00:00,206.0,11.84,211.0,13.26,13.92,47.59359,-54.27349
2021-06-17 19:04:01+00:00,204.0,11.23,204.0,12.3,13.92,47.59359,-54.27349
2021-06-17 19:14:01+00:00,204.0,10.9,198.0,11.88,13.84,47.59359,-54.27349
2021-06-17 19:24:01+00:00,209.0,11.69,208.0,12.87,13.84,47.59359,-54.27349
2021-06-17 19:34:01+00:00,212.0,11.77,214.0,13.51,13.84,47.59359,-54.27349
2021-06-17 19:44:01+00:00,213.0,12.6,209.0,14.8,13.84,47.59359,-54.27349
2021-06-17 19:54:01+00:00,213.0,12.92,212.0,14.39,13.84,47.59359,-54.27349
2021-06-17 20:04:01+00:00,211.0,11.98,212.0,13.87,13.84,47.59359,-54.27349
2021-06-17 20:14:01+00:00,213.0,11.98,215.0,13.49,13.84,47.59359,-54.27349
2021-06-17 20:24:01+00:00,206.0,11.25,209.0,12.24,13.84,47.59359,-54.27349
2021-06-17 20:34:01+00:00,208.0,10.05,207.0,11.85,13.84,47.59359,-54.27349
2021-06-17 20:44:01+00:00,209.0,9.92,208.0,11.32,13.84,47.59359,-54.27349
2021-06-17 20:54:01+00:00,207.0,11.16,211.0,12.69,13.84,47.59359,-54.27349
2021-06-17 21:04:01+00:00,208.0,9.82,208.0,11.18,13.84,47.59359,-54.27349
2021-06-17 21:14:01+00:00,208.0,10.68,209.0,12.05,13.68,47.59359,-54.27349
2021-06-17 21:24:01+00:00,211.0,11.76,214.0,13.52,13.68,47.59359,-54.27349
2021-06-17 21:34:01+00:00,210.0,11.41,216.0,12.7,13.68,47.59359,-54.27349
2021-06-17 21:44:01+00:00,211.0,10.95,210.0,12.6,13.68,47.59359,-54.27349
2021-06-17 21:54:01+00:00,216.0,9.43,215.0,11.48,13.68,47.59359,-54.27349
2021-06-17 22:04:01+00:00,212.0,9.48,218.0,10.85,13.68,47.59359,-54.27349
2021-06-17 22:14:01+00:00,210.0,10.12,210.0,11.5,13.84,47.59359,-54.27349
2021-06-17 22:24:01+00:00,212.0,9.48,212.0,10.68,13.84,47.59359,-54.27349
2021-06-17 22:34:01+00:00,210.0,9.37,210.0,10.44,13.84,47.59359,-54.27349
2021-06-17 22:44:01+00:00,209.0,9.03,203.0,9.88,13.84,47.59359,-54.27349
2021-06-17 22:54:01+00:00,209.0,8.39,209.0,9.13,13.84,47.59359,-54.27349
2021-06-17 23:04:01+00:00,210.0,7.8,209.0,8.79,13.84,47.59359,-54.27349
2021-06-17 23:14:01+00:00,210.0,9.36,206.0,11.03,13.29,47.59359,-54.27349
2021-06-17 23:24:01+00:00,214.0,10.16,217.0,11.25,13.29,47.59359,-54.27349
2021-06-17 23:34:01+00:00,216.0,8.48,214.0,9.84,13.29,47.59359,-54.27349
2021-06-17 23:44:01+00:00,210.0,10.16,214.0,11.92,13.29,47.59359,-54.27349
2021-06-17 23:54:01+00:00,213.0,9.93,212.0,11.16,13.29,47.59359,-54.27349
